Orbital Elements at Epoch 2459000.5 (2020-May-31.0) TDB
Reference: JPL 16 (heliocentric ecliptic J2000)
Element | Value | Uncertainty (1-sigma) | Units |
e | .1746300516366725 | 5.0824e-08 | |
a | 2.60834683471299 | 9.8611e-09 | au |
q | 2.15285109228071 | 1.3058e-07 | au |
i | 11.56652505595393 | 5.5956e-06 | deg |
node | 205.6321465178033 | 2.069e-05 | deg |
peri | 175.7453780782483 | 2.5253e-05 | deg |
M | 339.3751985714599 | 1.2849e-05 | deg |
tp | 2459088.652312839750 (2020-Aug-27.15231284) | 5.496e-05 | TDB |
period | 1538.673365281282 4.21 | 8.7257e-06 2.389e-08 | d yr |
n | .2339677855762382 | 1.3268e-09 | deg/d |
Q | 3.063842577145271 | 1.1583e-08 | au |
|
| | Orbit Determination Parameters
Additional Information
|